Tracking 18630 objects as of 25-May-2017
HD Live streaming from Space Station
objects crossing your sky now

IRIDIUM 54

Track IRIDIUM 54 now!
10-day predictions
IRIDIUM 54 is classified as:


NORAD ID: 25171
Int'l Code: 1998-010C
Perigee: 783.3 km
Apogee: 786.3 km
Inclination: 86.4 °
Period: 100.4 minutes
Semi major axis: 7155 km
RCS: 3.5028 m2 (large)
Launch date: February 18, 1998
Source: United States (US)
Launch site: AIR FORCE WESTERN TEST RANGE (AFWTR)
Your satellite tracking list
Your tracking list is empty





NASA's NSSDC Master Catalog

Two Line Element Set (TLE):
1 25171U 98010C   17144.71532712 +.00000109 +00000-0 +31861-4 0  9992
2 25171 086.3965 000.2287 0002099 088.3575 271.7861 14.34216241008581
Source of the keplerian elements: AFSPC